STARLINK-33780, 63459

Orbit data source: Space-Track

STARLINK-33780, 63459 is a payload satellite owned by SpaceX/Seattle (US) in LEO that was launched on Fri, 04 Apr 2025 UTC via an FALCON 9 launch vehicle from the Air Force Western Test Range (AFWTR). Payload-class satellites include a variety of spacecraft equipped with specific instruments for various scientific and technological missions. These include communications satellites like Starlink; space stations such as the ISS; scientific satellites like the Hubble; Earth observation satellites from companies like Planet Labs, Umbra, and HawkEye 360; GPS; miniature CubeSats for education and research; and military/defense satellites.

Loading next visibility...
Identifier
63459, 2025-069AC
Orbit
LEO
Country
Flag of USUS
Related business
Manufacturer
SpaceX/Seattle
Mission
Operational Commercial Communications
Bus & Motor
STARLINK V2MO, Unknown motor
Mass
575 kg wet, ~530 kg dry
Launch date (UTC)
2025-04-04 (8 months ago)
Launch vehicle
FALCON 9
Launch site
Air Force Western Test Range (AFWTR)
Object type
Payload
Rocket body
Debris
Shape & HBR
Box + 2 Pan, 17.7 m
Radar Cross Section
36.964 m², Large (>1 m²)

Expand to show TLE details & history
Last TLE update: 21 hours ago

TLE from 21 hours ago
0 STARLINK-33780
1 63459U 25069AC  25348.82704390  .00020011  00000-0  68651-3 0  9997
2 63459  53.1571 176.5102 0001160  88.8981 271.2153 15.30173152 40309
Epoch: 2025-12-14T19:50Z
TLE epoch observation values (Epoch: 2025-12-14T19:50:56.592Z)
Latitude
-0.00001°
Longitude
155.04001°
Altitude
476.178 km
Speed
7.629 km/s
True Right ascension
11h 46m 02s
True Declination
0° 00' 00"
Sunlit
Object was in daylight at epoch
Visualization orbit readout
Latitude
Unknown
Longitude
Unknown
Altitude
Unknown
Speed
Unknown
Apparent Right ascension
Unknown
Apparent Declination
Unknown
Sunlit
N/A
Visualization observer readout
Local Sidereal Time
15:11:35
Azimuth
Unknown
Elevation
Unknown
Doppler factor
Unknown
Orbital elements
Apogee altitude
476.347 km
Perigee altitude
474.757 km
Semi-major axis
6,853.689 km
Eccentricity
0.00012
Inclination
53.1571°
RAAN
176.5102°
Arg. of periapsis
88.8981°
True anomaly
271.20201°
Mean anomaly
271.2153°
Eccentric anomaly
271.20866°
Mean motion
3.82522 °/min
Orbital period
94.11 mins
BSTAR
0.00068651
Loading maneuver chart data...
Computing Atmospheric mass density...
Loading historical data...
Loading historical data...
Loading historical data...
Loading historical data...
Loading historical data...
Loading historical data...
Loading historical data...

Documentation

Showing up to 5 results
|